Location: Norderney
(53.7000°N, 7.1500°E)
Time: 22:45:41
(UTC+02:00)

X-37B - Visible Passes

Search period start: 23 June 2021 00:00
Search period end: 03 July 2021 00:00
Orbit: 386 x 389 km, 45.0° (Epoch: 10 June)

Date Brightness Start Highest point End Pass type
(mag) Time Alt. Az. Time Alt. Az. Time Alt. Az.
24 Jun 2.6 00:09:18 10° SSW 00:10:08 13° SSW 00:10:08 13° SSW visible
24 Jun 2.5 23:11:37 10° SSW 23:13:12 13° SSE 23:14:47 10° SE visible
25 Jun 2.8 00:46:53 10° SW 00:47:29 13° SW 00:47:29 13° SW visible
25 Jun 2.2 23:48:46 10° SW 23:50:57 17° S 23:51:53 15° SSE visible
27 Jun 2.4 00:26:39 10° SW 00:28:17 16° SSW 00:28:17 16° SSW visible
27 Jun 2.3 23:28:25 10° SW 23:30:37 17° S 23:32:17 13° SE visible
29 Jun 2.5 00:06:37 10° SW 00:08:23 14° SSW 00:08:29 14° SSW visible
29 Jun 2.4 23:08:11 10° SW 23:10:16 16° S 23:12:22 10° SSE visible
30 Jun 2.8 23:46:57 10° SW 23:47:59 11° SSW 23:48:33 11° S visible
